FW8733 Weather Reports


time (UTC)temp
C
wind
direction
speed
KPH
gust
KPH
rain 1hr
cm
rain 24hr
cm
rain mn
cm
humidity
%
barometer
mb
20260507185759 18 221 0.0 1.6 0.00 0.00 0.00 74 1021.0
20260507185255 18 220 4.8 8.0 0.00 0.00 0.00 75 1021.0
20260507184752 18 221 1.6 1.6 0.00 0.00 0.00 76 1020.8
20260507184250 18 226 3.2 4.8 0.00 0.00 0.00 75 1021.0
20260507183747 18 209 0.0 1.6 0.00 0.00 0.00 77 1020.7
20260507183244 18 217 1.6 3.2 0.00 0.00 0.00 76 1020.7
20260507182741 18 175 4.8 8.0 0.00 0.00 0.00 75 1020.4
20260507182236 18 186 4.8 9.7 0.00 0.00 0.00 74 1020.9
20260507181733 18 237 1.6 1.6 0.00 0.00 0.00 75 1021.1
20260507181230 18 224 0.0 1.6 0.00 0.00 0.00 76 1021.0
20260507180726 18 197 1.6 3.2 0.00 0.00 0.00 78 1021.2
20260507180223 18 235 0.0 0.0 0.00 0.00 0.00 78 1021.1
20260507175719 18 238 0.0 1.6 0.00 0.00 0.00 79 1021.4
20260507175216 18 224 0.0 0.0 0.00 0.00 0.00 79 1020.9
20260507174713 18 196 1.6 3.2 0.00 0.00 0.00 77 1020.8
20260507174211 18 204 0.0 0.0 0.00 0.00 0.00 77 1020.9
20260507173708 18 275 0.0 1.6 0.00 0.00 0.00 77 1021.1
20260507173205 18 203 1.6 1.6 0.00 0.00 0.00 79 1021.4
20260507172702 17 207 0.0 1.6 0.00 0.00 0.00 79 1021.7
20260507172159 17 243 1.6 1.6 0.00 0.00 0.00 81 1021.2
20260507171658 17 240 0.0 0.0 0.00 0.00 0.00 83 1021.8
20260507171156 17 240 0.0 0.0 0.00 0.00 0.00 83 1021.8
20260507170653 16 237 0.0 0.0 0.00 0.00 0.00 84 1021.4
20260507170150 16 292 4.8 4.8 0.00 0.00 0.00 85 1020.8
20260507165646 16 215 1.6 1.6 0.00 0.00 0.00 87 1021.0
20260507165142 16 226 0.0 0.0 0.00 0.00 0.00 88 1020.5
20260507164638 16 149 0.0 1.6 0.00 0.00 0.00 89 1021.0
20260507164135 15 207 0.0 0.0 0.00 0.00 0.00 90 1021.2
20260507163632 15 306 4.8 4.8 0.00 0.00 0.00 90 1021.9
20260507163130 15 205 0.0 1.6 0.00 0.00 0.00 91 1021.6
20260507162626 15 278 1.6 3.2 0.00 0.00 0.00 92 1021.6
20260507162122 15 220 0.0 0.0 0.00 0.00 0.00 92 1021.9
20260507161619 15 51 1.6 3.2 0.00 0.00 0.00 91 1022.1
20260507161116 15 213 0.0 0.0 0.00 0.00 0.00 91 1022.1
20260507160612 15 226 1.6 1.6 0.00 0.00 0.00 90 1022.3
20260507160108 15 234 0.0 0.0 0.00 0.00 0.00 90 1023.3
20260507155603 15 239 0.0 0.0 0.00 0.00 0.00 90 1023.1
20260507155101 15 239 0.0 0.0 0.00 0.00 0.00 90 1023.0
20260507154558 15 261 0.0 1.6 0.00 0.00 0.00 90 1022.5
20260507154055 15 222 1.6 1.6 0.00 0.00 0.00 89 1021.4
20260507153551 15 215 3.2 4.8 0.00 0.00 0.00 89 1021.9
20260507153048 15 261 0.0 0.0 0.00 0.00 0.00 89 1022.2
20260507152544 15 224 1.6 1.6 0.00 0.00 0.00 90 1022.1
20260507152040 15 230 0.0 1.6 0.00 0.00 0.00 90 1022.3
20260507151536 15 238 0.0 0.0 0.00 0.00 0.00 90 1022.4
20260507151033 15 249 0.0 0.0 0.00 0.00 0.00 91 1022.3
20260507150530 15 195 0.0 0.0 0.00 0.00 0.00 91 1022.2
20260507150028 15 238 0.0 1.6 0.00 0.00 0.00 92 1022.4
20260507145522 15 257 0.0 0.0 0.00 0.00 0.00 92 1022.7
20260507145021 15 239 0.0 0.0 0.00 0.00 0.00 92 1022.7
20260507144517 15 231 0.0 0.0 0.00 0.00 0.00 92 1022.6
20260507144014 15 223 1.6 1.6 0.00 0.00 0.00 93 1022.6
20260507143511 15 254 0.0 0.0 0.00 0.00 0.00 93 1022.7
20260507143009 15 225 0.0 0.0 0.00 0.00 0.00 93 1022.6
20260507142504 15 207 1.6 1.6 0.00 0.00 0.00 92 1022.5
20260507142001 15 224 0.0 0.0 0.00 0.00 0.00 93 1022.2
20260507141456 15 239 0.0 1.6 0.00 0.00 0.00 93 1022.2
20260507140954 15 261 0.0 3.2 0.00 0.00 0.00 93 1022.2
20260507140450 14 258 1.6 1.6 0.00 0.00 0.00 93 1022.1
20260507135948 14 297 4.8 4.8 0.00 0.00 0.00 93 1022.3
20260507135444 15 309 1.6 1.6 0.00 0.00 0.00 93 1022.1
20260507134942 14 228 0.0 0.0 0.00 0.00 0.00 93 1022.2
20260507134438 14 234 0.0 0.0 0.00 0.00 0.00 93 1022.3
20260507133934 14 212 1.6 3.2 0.00 0.00 0.00 93 1021.8
20260507133431 15 214 0.0 0.0 0.00 0.00 0.00 93 1021.9
20260507132929 14 244 1.6 3.2 0.00 0.00 0.00 93 1021.6
20260507132425 14 306 1.6 4.8 0.00 0.00 0.00 93 1021.7
20260507131922 15 218 1.6 1.6 0.00 0.00 0.00 93 1021.2
20260507131419 14 213 1.6 1.6 0.00 0.00 0.00 94 1021.2
20260507130916 14 233 0.0 1.6 0.00 0.00 0.00 94 1021.6
20260507130413 14 232 0.0 0.0 0.00 0.00 0.00 94 1021.6
20260507125912 14 222 3.2 3.2 0.00 0.00 0.00 94 1021.5
20260507125409 14 325 3.2 8.0 0.00 0.00 0.00 93 1021.5
20260507124906 14 224 0.0 0.0 0.00 0.00 0.00 93 1021.8
20260507124402 14 216 1.6 1.6 0.00 0.00 0.00 93 1021.4
20260507123901 14 249 0.0 1.6 0.00 0.00 0.00 93 1021.4
20260507123357 14 185 1.6 3.2 0.00 0.00 0.00 93 1021.0
20260507122854 14 196 1.6 3.2 0.00 0.00 0.00 92 1021.4
20260507122349 15 226 0.0 1.6 0.00 0.00 0.00 92 1021.1
20260507121845 15 213 0.0 0.0 0.00 0.00 0.00 92 1021.4
20260507121341 14 225 0.0 1.6 0.00 0.00 0.00 92 1021.4
20260507120838 14 220 1.6 1.6 0.00 0.00 0.00 92 1021.2
20260507120334 15 197 0.0 1.6 0.00 0.00 0.00 92 1020.8
20260507115831 14 245 0.0 1.6 0.00 0.00 0.00 92 1020.7
20260507115326 15 224 1.6 3.2 0.00 0.00 0.00 92 1020.7
20260507114822 15 199 1.6 3.2 0.00 0.00 0.00 92 1020.6
20260507114320 15 237 0.0 0.0 0.00 0.00 0.00 92 1021.0
20260507113817 15 267 1.6 1.6 0.00 0.00 0.00 92 1020.4
20260507113314 15 334 1.6 1.6 0.00 0.00 0.00 92 1020.4
20260507112811 15 226 0.0 0.0 0.00 0.00 0.00 92 1020.5
20260507112308 15 242 0.0 1.6 0.00 0.00 0.00 92 1020.2
20260507111806 15 201 1.6 1.6 0.00 0.00 0.00 92 1020.0
20260507111302 15 235 0.0 1.6 0.00 0.00 0.00 91 1020.3
20260507110758 15 216 1.6 1.6 0.00 0.00 0.00 92 1020.4
20260507110255 15 214 0.0 0.0 0.00 0.00 0.00 92 1020.2
20260507105752 15 225 1.6 1.6 0.00 0.00 0.00 92 1020.6
20260507105248 15 235 0.0 0.0 0.00 0.00 0.00 91 1020.3
20260507104745 15 212 1.6 1.6 0.00 0.00 0.00 91 1020.3
20260507104242 15 214 1.6 1.6 0.00 0.00 0.00 92 1020.5
20260507103738 15 223 1.6 1.6 0.00 0.00 0.00 92 1020.6
20260507103234 15 254 0.0 0.0 0.00 0.00 0.00 92 1020.4
20260507102731 15 227 1.6 1.6 0.00 0.00 0.00 91 1020.3
20260507102228 15 229 1.6 1.6 0.00 0.00 0.00 91 1019.9
20260507101723 15 213 0.0 0.0 0.00 0.00 0.00 91 1019.9
20260507101219 15 219 1.6 1.6 0.00 0.00 0.00 91 1019.7
20260507100716 15 255 1.6 1.6 0.00 0.00 0.00 91 1020.0
20260507100215 15 221 0.0 0.0 0.00 0.00 0.00 91 1019.8
20260507095712 15 240 0.0 0.0 0.00 0.00 0.00 91 1019.8
20260507095209 15 265 1.6 3.2 0.00 0.00 0.00 91 1019.7
20260507094705 15 215 0.0 0.0 0.00 0.00 0.00 91 1019.8
20260507094202 15 224 0.0 1.6 0.00 0.00 0.00 91 1019.7
20260507093659 15 258 0.0 0.0 0.00 0.00 0.00 91 1019.9
20260507093158 15 238 0.0 0.0 0.00 0.00 0.00 91 1019.8
20260507092655 15 236 0.0 0.0 0.00 0.00 0.00 90 1019.6
20260507092151 15 244 0.0 0.0 0.00 0.00 0.00 91 1019.8
20260507091648 15 244 0.0 0.0 0.00 0.00 0.00 90 1019.6
20260507091144 15 260 0.0 1.6 0.00 0.00 0.00 90 1019.6
20260507090639 15 259 0.0 0.0 0.00 0.00 0.00 90 1019.9
20260507090137 15 238 0.0 0.0 0.00 0.00 0.00 90 1019.6
20260507085634 15 245 0.0 0.0 0.00 0.00 0.00 90 1019.3
20260507085130 15 210 0.0 0.0 0.00 0.00 0.00 90 1019.2
20260507084627 15 244 0.0 0.0 0.00 0.00 0.00 90 1019.3
20260507084124 15 220 0.0 1.6 0.00 0.00 0.00 90 1019.3
20260507083621 15 201 0.0 0.0 0.00 0.00 0.00 90 1018.9
20260507083118 15 200 0.0 0.0 0.00 0.00 0.00 90 1019.1
20260507082614 15 241 0.0 0.0 0.00 0.00 0.00 90 1019.3
20260507082110 15 241 0.0 0.0 0.00 0.00 0.00 90 1019.1
20260507081607 15 241 0.0 1.6 0.00 0.00 0.00 89 1019.0
20260507081104 15 242 0.0 0.0 0.00 0.00 0.00 89 1019.1
20260507080600 15 243 0.0 0.0 0.00 0.00 0.00 88 1018.8
20260507080056 15 243 1.6 1.6 0.00 0.00 0.00 88 1018.9
20260507075551 16 214 0.0 0.0 0.00 0.00 0.00 88 1018.8
20260507075048 16 213 1.6 1.6 0.00 0.00 0.00 88 1018.9
20260507074545 15 245 0.0 0.0 0.00 0.00 0.00 88 1018.6
20260507074043 16 197 0.0 0.0 0.00 0.00 0.00 88 1018.7
20260507073539 16 219 0.0 0.0 0.00 0.00 0.00 88 1018.7
20260507073036 16 223 0.0 0.0 0.00 0.00 0.00 87 1018.8
20260507072533 16 196 0.0 0.0 0.00 0.00 0.00 87 1018.9
20260507072030 16 208 1.6 1.6 0.00 0.00 0.00 87 1018.8
20260507071527 16 175 6.4 8.0 0.00 0.00 0.00 87 1019.0
20260507071024 16 249 1.6 1.6 0.00 0.00 0.00 87 1018.6
20260507070521 16 199 0.0 1.6 0.00 0.00 0.00 87 1018.4
20260507070018 16 202 0.0 0.0 0.00 0.00 0.00 87 1018.6
20260507065514 16 207 0.0 0.0 0.00 0.00 0.00 87 1018.9
20260507065012 16 217 1.6 1.6 0.00 0.00 0.00 87 1018.7
20260507064509 16 226 0.0 1.6 0.00 0.00 0.00 87 1018.4
20260507064008 16 264 0.0 0.0 0.00 0.00 0.00 87 1018.6
20260507063504 16 182 6.4 8.0 0.00 0.00 0.00 87 1018.5
20260507063002 16 239 0.0 1.6 0.00 0.00 0.00 87 1018.5
20260507062458 16 203 0.0 0.0 0.00 0.00 0.00 87 1018.5
20260507061956 16 217 0.0 0.0 0.00 0.00 0.00 87 1018.2
20260507061453 16 234 0.0 0.0 0.00 0.00 0.00 87 1018.6
20260507060952 16 234 0.0 0.0 0.00 0.00 0.00 86 1018.9
20260507060448 16 218 0.0 1.6 0.00 0.00 0.00 86 1018.9
20260507055945 16 218 1.6 3.2 0.00 0.00 0.00 86 1018.3
20260507055440 16 203 1.6 3.2 0.00 0.00 0.00 86 1018.6
20260507054937 16 183 3.2 3.2 0.00 0.00 0.00 86 1019.0
20260507054433 16 211 0.0 0.0 0.00 0.00 0.00 85 1018.7
20260507053931 16 207 3.2 4.8 0.00 0.00 0.00 85 1018.9
20260507053428 16 174 3.2 4.8 0.00 0.00 0.00 85 1018.6
20260507052927 16 215 3.2 4.8 0.00 0.00 0.00 86 1018.5
20260507052424 16 205 0.0 0.0 0.00 0.00 0.00 85 1018.6
20260507051920 16 207 0.0 1.6 0.00 0.00 0.00 86 1018.2
20260507051418 16 211 3.2 4.8 0.00 0.00 0.00 86 1018.5
20260507050915 16 214 1.6 3.2 0.00 0.00 0.00 86 1018.4
20260507050411 16 234 0.0 0.0 0.00 0.00 0.00 86 1018.4
20260507045908 16 222 0.0 1.6 0.00 0.00 0.00 86 1018.2
20260507045405 16 206 1.6 4.8 0.00 0.00 0.00 87 1018.4
20260507044902 16 216 0.0 0.0 0.00 0.00 0.00 87 1018.5
20260507044359 16 220 0.0 0.0 0.00 0.00 0.00 88 1018.5
20260507043855 16 207 0.0 0.0 0.00 0.00 0.00 88 1018.5
20260507043351 16 235 0.0 0.0 0.00 0.00 0.00 88 1018.5
20260507042848 16 244 0.0 0.0 0.00 0.00 0.00 88 1018.7
20260507042344 16 244 0.0 0.0 0.00 0.00 0.00 88 1018.5
20260507041840 16 245 0.0 0.0 0.00 0.00 0.00 88 1018.6
20260507041337 16 245 0.0 0.0 0.00 0.00 0.00 88 1018.5
20260507040835 16 247 1.6 3.2 0.00 0.00 0.00 89 1018.2
20260507040330 16 215 1.6 1.6 0.00 0.00 0.00 88 1018.3
20260507035826 16 195 4.8 4.8 0.00 0.00 0.00 88 1018.6
20260507035322 16 245 0.0 0.0 0.00 0.00 0.00 88 1018.6
20260507034820 16 245 0.0 0.0 0.00 0.00 0.00 88 1018.6
20260507034316 16 245 0.0 0.0 0.00 0.00 0.00 88 1018.7
20260507033815 16 245 3.2 3.2 0.00 0.00 0.00 88 1018.7
20260507033312 16 245 0.0 0.0 0.00 0.00 0.00 87 1018.6
20260507032809 16 246 0.0 1.6 0.00 0.00 0.00 87 1018.7
20260507032306 16 218 0.0 0.0 0.00 0.00 0.00 87 1018.3
20260507031802 17 232 0.0 0.0 0.00 0.00 0.00 87 1018.3
20260507031259 17 199 0.0 0.0 0.00 0.00 0.00 87 1017.9
20260507030755 17 246 0.0 1.6 0.00 0.00 0.00 87 1018.3
20260507030253 17 246 0.0 0.0 0.00 0.00 0.00 86 1018.1
20260507025750 17 224 0.0 0.0 0.00 0.00 0.00 87 1018.3
20260507025247 17 244 0.0 1.6 0.00 0.00 0.00 87 1018.1
20260507024745 17 244 0.0 0.0 0.00 0.00 0.00 87 1018.0
20260507024242 17 244 0.0 1.6 0.00 0.00 0.00 87 1018.1
20260507023737 17 212 0.0 0.0 0.00 0.00 0.00 88 1018.1
20260507023235 17 213 0.0 0.0 0.00 0.00 0.00 88 1018.0
20260507022732 17 245 0.0 0.0 0.00 0.00 0.00 87 1017.8
20260507022227 17 258 0.0 1.6 0.00 0.00 0.00 87 1017.8
20260507021724 17 245 0.0 0.0 0.00 0.00 0.00 87 1017.8
20260507021219 17 222 0.0 0.0 0.00 0.00 0.00 87 1017.8
20260507020718 17 199 1.6 3.2 0.00 0.00 0.00 87 1017.6
20260507020214 17 245 0.0 0.0 0.00 0.00 0.00 88 1017.4
20260507015712 17 245 0.0 0.0 0.00 0.00 0.00 88 1017.4
20260507015209 17 246 0.0 0.0 0.00 0.00 0.00 88 1017.4
20260507014706 17 246 0.0 0.0 0.00 0.00 0.00 87 1017.2
20260507014202 17 246 0.0 0.0 0.00 0.00 0.00 87 1017.1
20260507013659 17 245 0.0 0.0 0.00 0.00 0.00 87 1017.1
20260507013156 17 245 0.0 0.0 0.00 0.00 0.00 87 1017.1
20260507012654 17 245 0.0 0.0 0.00 0.00 0.00 87 1016.8
20260507012149 17 245 0.0 0.0 0.00 0.00 0.00 87 1016.7
20260507011647 17 245 0.0 0.0 0.00 0.00 0.00 87 1016.2
20260507011143 17 249 0.0 1.6 0.00 0.00 0.00 87 1016.5
20260507010638 17 249 0.0 0.0 0.00 0.00 0.00 86 1016.4
20260507010134 17 246 0.0 0.0 0.00 0.00 0.00 86 1016.4
20260507005631 17 246 0.0 0.0 0.00 0.00 0.00 86 1016.6
20260507005127 17 200 0.0 0.0 0.00 0.00 0.00 86 1016.5
20260507004624 17 200 0.0 1.6 0.00 0.00 0.00 86 1016.6
20260507004122 17 229 1.6 1.6 0.00 0.00 0.00 86 1016.4
20260507003618 17 230 0.0 1.6 0.00 0.00 0.00 85 1016.2
20260507003113 17 229 0.0 0.0 0.00 0.00 0.00 85 1015.9
20260507002610 17 217 0.0 0.0 0.00 0.00 0.00 86 1016.1
20260507002105 17 217 0.0 0.0 0.00 0.00 0.00 85 1015.9
20260507001603 17 236 0.0 0.0 0.00 0.00 0.00 85 1015.9
20260507001100 17 217 0.0 1.6 0.00 0.00 0.00 85 1016.2
20260507000556 17 229 0.0 0.0 0.00 0.00 0.00 85 1016.0
20260507000052 17 242 0.0 1.6 0.00 0.00 0.00 86 1016.0
20260506235549 17 243 0.0 1.6 0.00 0.00 0.00 86 1016.2
20260506235044 17 243 0.0 1.6 0.00 0.00 0.00 86 1016.1
20260506234542 17 244 1.6 3.2 0.00 0.00 0.00 85 1015.8
20260506234039 17 209 0.0 0.0 0.00 0.00 0.00 85 1016.1
20260506233536 17 252 0.0 0.0 0.00 0.00 0.00 85 1016.3
20260506233033 17 214 0.0 0.0 0.00 0.00 0.00 85 1016.0
20260506232529 17 214 0.0 0.0 0.00 0.00 0.00 85 1015.6
20260506232024 17 214 1.6 1.6 0.00 0.00 0.00 84 1016.0
20260506231522 17 243 0.0 0.0 0.00 0.00 0.00 85 1015.8
20260506231020 17 244 0.0 0.0 0.00 0.00 0.00 85 1015.8
20260506230516 17 210 0.0 1.6 0.00 0.00 0.00 84 1015.9
20260506230014 17 235 0.0 0.0 0.00 0.00 0.00 85 1015.6
20260506225510 17 209 0.0 0.0 0.00 0.00 0.00 85 1015.6
20260506225007 17 209 1.6 3.2 0.00 0.00 0.00 84 1015.9
20260506224504 17 254 1.6 3.2 0.00 0.00 0.00 84 1015.8
20260506224000 17 223 0.0 1.6 0.00 0.00 0.00 85 1015.9
20260506223456 17 256 0.0 0.0 0.00 0.00 0.00 84 1015.9
20260506222953 17 214 3.2 3.2 0.00 0.00 0.00 85 1015.6
20260506222450 17 213 1.6 1.6 0.00 0.00 0.00 84 1015.8
20260506221946 17 211 1.6 1.6 0.00 0.00 0.00 84 1016.0
20260506221444 17 210 0.0 0.0 0.00 0.00 0.00 84 1015.6
20260506220942 17 239 1.6 1.6 0.00 0.00 0.00 83 1015.8
20260506220437 18 251 0.0 0.0 0.00 0.00 0.00 83 1015.6
20260506215933 18 235 0.0 1.6 0.00 0.00 0.00 83 1015.5
20260506215430 18 232 0.0 0.0 0.00 0.00 0.00 81 1015.8
20260506214926 18 256 0.0 1.6 0.00 0.00 0.00 81 1015.6
20260506214423 18 251 0.0 0.0 0.00 0.00 0.00 81 1015.6
20260506213921 18 205 3.2 3.2 0.00 0.00 0.00 82 1015.5
20260506213418 18 273 0.0 1.6 0.00 0.00 0.00 81 1015.5
20260506212915 18 207 0.0 0.0 0.00 0.00 0.00 82 1015.4
20260506212411 18 262 3.2 3.2 0.00 0.00 0.00 81 1015.5
20260506211906 18 190 1.6 1.6 0.00 0.00 0.00 81 1015.5
20260506211402 19 256 0.0 0.0 0.00 0.00 0.00 81 1015.6
20260506210859 19 260 3.2 3.2 0.00 0.00 0.00 80 1015.5
20260506210356 19 212 0.0 0.0 0.00 0.00 0.00 81 1015.6
20260506205854 19 210 0.0 0.0 0.00 0.00 0.00 81 1015.7
20260506205349 19 237 0.0 1.6 0.00 0.00 0.00 81 1015.6
20260506204846 20 253 4.8 4.8 0.00 0.00 0.00 79 1015.5
20260506204344 20 172 1.6 1.6 0.00 0.00 0.00 80 1015.8
20260506203841 19 263 1.6 1.6 0.00 0.00 0.00 81 1015.7
20260506203338 20 147 1.6 4.8 0.00 0.00 0.00 81 1015.7
20260506202835 19 198 1.6 1.6 0.00 0.00 0.00 83 1016.0
20260506202332 20 215 0.0 0.0 0.00 0.00 0.00 82 1016.1
20260506201828 20 264 3.2 4.8 0.00 0.00 0.00 81 1015.6
20260506201326 20 240 1.6 3.2 0.00 0.00 0.00 81 1015.6
20260506200822 21 190 0.0 1.6 0.00 0.00 0.00 81 1015.7
20260506200319 21 238 0.0 0.0 0.00 0.00 0.00 82 1015.5
20260506195815 21 236 0.0 0.0 0.00 0.00 0.00 82 1015.5
20260506195312 21 251 1.6 3.2 0.00 0.00 0.00 82 1015.3
20260506194809 20 250 0.0 0.0 0.00 0.00 0.00 83 1015.3
20260506194305 21 286 3.2 3.2 0.00 0.00 0.00 82 1015.4
20260506193803 21 234 0.0 1.6 0.00 0.00 0.00 83 1015.4
20260506193300 20 214 1.6 3.2 0.00 0.00 0.00 84 1015.1
20260506192756 20 206 1.6 1.6 0.00 0.00 0.00 85 1015.3
20260506192253 20 227 0.0 0.0 0.00 0.00 0.00 85 1015.4
20260506191750 20 243 1.6 3.2 0.00 0.00 0.00 85 1015.5
20260506191246 21 212 0.0 1.6 0.00 0.00 0.00 85 1015.1
20260506190743 21 217 0.0 1.6 0.00 0.00 0.00 85 1015.2
20260506190240 21 186 3.2 3.2 0.00 0.00 0.00 85 1015.3